Вернуться в каталог

STARLINK-34209

АктивенСвязьSSO
NORAD 64150·PAYLOAD·🇺🇸 United States

Запущен May 27, 2025 с Vandenberg Space Force Base

Loading…

Ближайшие Пролёты (ближайшие 24 часа)

TLE

СвежийSource: CelesTrak SupGP

Эпоха: Sep 15, 2026, 03:12 UTC

1 64150C 25112E   26258.13381944  .00017384  00000+0  53977-3 0  2587
2 64150  97.2840 305.2599 0001079  84.9868 310.8520 15.33423140    17

Отслеживайте STARLINK-34209 в реальном времени с AllMySat

Download on the App Store